Address 0x6ca3a6279543e077b9d2e1be868fce323088fcb9 1

Txn Hash Method
Block
From
To
Value [Txn Fee]
0xa7a984cfabce03057969b6c2e68ceb52908d009e6c76948841063fe21113d713Transfer187937052022-08-18 7:30:405 mins ago0x6ca3a6279543e077b9d2e1be868fce323088fcb9OUT 0x1f1e7c893855525b303f99bdf5c3c05be09ca2510 AVAX0.‍00179335233
0x35e017a4073daaffb2b8ceaa4dea724c3eac98e9153c3a618bea38dc94232797Swap Tokens For ...187936682022-08-18 7:29:266 mins ago0x6ca3a6279543e077b9d2e1be868fce323088fcb9OUT Trader Joe: Router0 AVAX0.‍00620218533
0x202a37da8a33756425575050699ae4a91a702f9e5fc3220e5f3259f0ce3e44c6Transfer187936442022-08-18 7:28:387 mins ago0x6ca3a6279543e077b9d2e1be868fce323088fcb9OUT 0x1f1e7c893855525b303f99bdf5c3c05be09ca2510 AVAX0.‍00179335233
0x5892ba771a559c4a752f6be5418e1c3e23e9c6f10015b15f2528fb2877ed4a66Swap Tokens For ...187936402022-08-18 7:28:307 mins ago0x6ca3a6279543e077b9d2e1be868fce323088fcb9OUT Trader Joe: Router0 AVAX0.‍00620218533
0xdac763811c5a668d9398fee67a80e0dd2d5fe716736a2c95e9122b2468243df7Swap Exact Token...187925572022-08-18 6:51:3644 mins ago0x6ca3a6279543e077b9d2e1be868fce323088fcb9OUT Pangolin: Router0 AVAX0.‍00636068433
0x91124dbe732046af2905e433a7a91c64264e83b8b3a2a0cb3ea16982c5ee543fTransfer187920802022-08-18 6:35:081 hr 1 min ago0x6ca3a6279543e077b9d2e1be868fce323088fcb9OUT Platypus Finance: PTP Token0 AVAX0.‍00173652633
0x8628f234532d92a99edc21cda6ea2f244116e06dde6e2c180a1ccd81eef705e7Swap Tokens For ...187920782022-08-18 6:35:041 hr 1 min ago0x6ca3a6279543e077b9d2e1be868fce323088fcb9OUT Trader Joe: Router0 AVAX0.‍00614083833
0x6558bef4facb19711d712ae3da3b51aaca8254c9ae2561834cff40344ed6d559Transfer187918142022-08-18 6:26:031 hr 10 mins ago0x6ca3a6279543e077b9d2e1be868fce323088fcb9OUT 0xec3492a2508ddf4fdc0cd76f31f340b30d1793e60 AVAX0.‍00209995533
0x45637331588cdac618364c27dad7b5c861e434c6798b2dae64bbde40d857f2edSwap Tokens For ...187918132022-08-18 6:26:001 hr 10 mins ago0x6ca3a6279543e077b9d2e1be868fce323088fcb9OUT Trader Joe: Router0 AVAX0.‍0090652246
0x64c8bca1718c487e9825b36fab62d0efc30e754e93a70e66b59126a2226e5306Swap Tokens For ...187918102022-08-18 6:25:551 hr 10 mins ago0x6ca3a6279543e077b9d2e1be868fce323088fcb9OUT Trader Joe: Router0 AVAX0.‍00130990233
0xb7694cb77ec7160f7343516e77aacdf9998559cad7a641f4117d7ff81422e43aSwap Exact Token...187914472022-08-18 6:13:271 hr 22 mins ago0x6ca3a6279543e077b9d2e1be868fce323088fcb9OUT Pangolin: Router0 AVAX0.‍00636068433
0xcc72d7252a662cd28fee30075fe57873d5578c4545d83ac5ee593688dffd82c7Swap Exact Token...187914402022-08-18 6:13:101 hr 23 mins ago0x6ca3a6279543e077b9d2e1be868fce323088fcb9OUT Pangolin: Router0 AVAX0.‍00636028833
0xbeeb9fd7839737336b58b31f159c2a73deadba67d0d0c35c86a79c99d2e69039Swap Exact Token...187914342022-08-18 6:12:581 hr 23 mins ago0x6ca3a6279543e077b9d2e1be868fce323088fcb9OUT Pangolin: Router0 AVAX0.‍00886585646
0xe072ac2562273ae42037fa842ccef41ada0a16f78a0c4372b24ce282b3ddaf03Swap Exact Token...187914322022-08-18 6:12:531 hr 23 mins ago0x6ca3a6279543e077b9d2e1be868fce323088fcb9OUT Pangolin: Router0 AVAX0.‍00133194633
0xb386d358956e70e414f5cc96c7e48ea694500fa391b931503e54f89f7ada7269Swap Tokens For ...187914192022-08-18 6:12:271 hr 23 mins ago0x6ca3a6279543e077b9d2e1be868fce323088fcb9OUT Pangolin: Router0 AVAX0.‍00889276646
0xc88e1637f803a416d09c170af8a9dc138af6c0f68cbeda30deb69a95b46b4240Swap Tokens For ...187914172022-08-18 6:12:231 hr 23 mins ago0x6ca3a6279543e077b9d2e1be868fce323088fcb9OUT Pangolin: Router0 AVAX0.‍00133706133
0xd587d21cfc3e8c50cc12c84ecb7efbafb1875516a393c0ad11dafbf02945234cSwap Tokens For ...187914032022-08-18 6:11:561 hr 24 mins ago0x6ca3a6279543e077b9d2e1be868fce323088fcb9OUT Pangolin: Router0 AVAX0.‍00637998933
0x4d605d5b9372bcb2d96c71b253c1b74eeb4cda2398ab9d8e55b5a8d28beb83c5Swap Tokens For ...187913852022-08-18 6:11:201 hr 24 mins ago0x6ca3a6279543e077b9d2e1be868fce323088fcb9OUT Pangolin: Router0 AVAX0.‍00637998933
0xae9fab8de729482d149a0f2238742ce131b361da78cd2c22175a63b0d0159552Swap Tokens For ...187913712022-08-18 6:10:521 hr 25 mins ago0x6ca3a6279543e077b9d2e1be868fce323088fcb9OUT Pangolin: Router0 AVAX0.‍00637998933
0x893def3194f4d797243073f3ed20748c922c8a2efcb8942471d52b1c7dafdb15Swap Exact Token...187912892022-08-18 6:08:031 hr 28 mins ago0x6ca3a6279543e077b9d2e1be868fce323088fcb9OUT Trader Joe: Router0 AVAX0.‍008687146
0x3899ae47b292ef68f858797fa6e236d9b34aeebad6f15dd2fb17d665cf5e18d6Swap Exact Token...187912872022-08-18 6:07:591 hr 28 mins ago0x6ca3a6279543e077b9d2e1be868fce323088fcb9OUT Trader Joe: Router0 AVAX0.‍0018243646
0x046c4b5b156e1cf8d06224248773fca9cbc523b246970f8e612b1dc5e21ab22eSwap Exact Token...187912852022-08-18 6:07:561 hr 28 mins ago0x6ca3a6279543e077b9d2e1be868fce323088fcb9OUT Trader Joe: Router0 AVAX0.‍00130917633
0x0df355f36ff4b71b1605d505323ad3825d699a6d0e625ea11a1b3a7ca11b0534Swap Exact Token...187912802022-08-18 6:07:461 hr 28 mins ago0x6ca3a6279543e077b9d2e1be868fce323088fcb9OUT Pangolin: Router0 AVAX0.‍00636068433
0x52c95ddc438e9d1e1a51595268d547d5778c21687ae3c2227e79cffdb5d34f07Swap Exact Token...187905392022-08-18 5:42:261 hr 53 mins ago0x6ca3a6279543e077b9d2e1be868fce323088fcb9OUT Pangolin: Router0 AVAX0.‍00636028833
0xabed7c703467e9451e49fea87c90249e27039d6f6a8ed86ccae941e8938971f6Swap Exact Token...187905232022-08-18 5:41:541 hr 54 mins ago0x6ca3a6279543e077b9d2e1be868fce323088fcb9OUT Pangolin: Router0 AVAX0.‍00636028833
[ Download CSV Export 
Parent Txn Hash Block From To Value
Loading

Contract Name:
0

Compiler Version
0

Optimization Enabled:
0

Other Settings:
-NA-
Block Transaction Gas Used Reward
Age Block Fee Address BC Fee Address Voting Power Jailed Incoming
Block Uncle Number Difficulty Gas Used Reward
Loading
Make sure to use the "Vote Down" button for any spammy posts, and the "Vote Up" for interesting conversations.